Flag for Poland Weather past 2 weeks in Białystok, Poland

Now
39 °F

Light rain. Low clouds.


Feels Like: 39 °F
Forecast: 38 / 52 °F
Wind: 2 mph from North

Location: Bialystok

Current Time: Mar 28, 2015 at 7:24:02 PM

Latest Report: Mar 28, 2015 at 6:00 PM


Visibility: 6 mi

Pressure: 29.99 "Hg

Humidity: 93%

Dew point: 38 °F

Location of BiałystokLocation

Historic Weather in Białystok — Graph

°F

Białystok temperature yesterday

Maximum temperature yesterday: 67 °F (at 2:00 PM)
Minimum temperature yesterday: 45 °F (at 3:00 AM)
Average temperature yesterday: 55 °F

Past Weeks' High & Low Weather Summary

 TemperatureHumidityPressure
High67 °F (Mar 27, 2:00 PM)96% (Mar 20, 7:00 AM)30.85 "Hg (Mar 20, 7:00 AM)
Low16 °F (Mar 23, 1:00 AM)24% (Mar 16, 3:00 PM)29.78 "Hg (Mar 27, 4:00 PM)
Average41 °F64%30.25 "Hg
* Reported Mar 13 6:00 PM — Mar 28 6:00 PM, Białystok, Weather by CustomWeather, © 2015

Note: Actual official high and low records may vary slightly from our data, if they occured in-between our weather recording intervals... More about our weather records

Advertising

Białystok weather history for previous 24 hours

 ConditionsComfort  
Time TempWeatherWind HumidityBarometerVisibility
6:00 PM
Sat, Mar 28
39 °FLight rain. Low clouds.2 mph93%29.99 "Hg6 mi
5:00 PM40 °FLight rain. Low clouds.2 mph94%29.98 "Hg6 mi
4:00 PM40 °FLight rain. Low clouds.3 mph93%29.98 "Hg6 mi
3:00 PM40 °FLight rain. Low clouds.2 mph94%29.98 "Hg4 mi
2:00 PM39 °FLight rain. Low clouds.3 mph92%29.98 "Hg5 mi
1:00 PM38 °FLight rain. Low clouds.3 mph93%29.99 "Hg6 mi
12:00 PM37 °FLight rain. Low clouds.3 mph94%30.00 "Hg5 mi
11:00 AM37 °FRain. Low clouds.3 mph94%30.00 "Hg4 mi
10:00 AM37 °FLight rain. Low clouds.5 mph93%30.00 "Hg5 mi
9:00 AM38 °FRain. Low clouds.3 mph94%29.99 "Hg4 mi
8:00 AM39 °FRain. Low clouds.3 mph95%29.97 "Hg2 mi
7:00 AM39 °FLight rain. Low clouds.3 mph96%29.96 "Hg2 mi
6:00 AM39 °FLight rain. Low clouds.3 mph95%29.95 "Hg2 mi
5:00 AM40 °FLight rain. Low clouds.5 mph93%29.93 "Hg6 mi
4:00 AM41 °FLight rain. Low clouds.5 mph92%29.93 "Hg6 mi
3:00 AM42 °FFog.3 mph95%29.91 "Hg3 mi
2:00 AM43 °FFog.5 mph95%29.90 "Hg3 mi
1:00 AM48 °FLow clouds.3 mph96%29.88 "Hg2 mi
12:00 AM51 °FLight rain. Low clouds.2 mph95%29.87 "Hg2 mi
11:00 PM
Fri, Mar 27
51 °FLight rain. Overcast.3 mph92%29.86 "Hg5 mi
9:00 PM56 °FLight rain. Overcast.3 mph58%29.83 "Hg13 mi
8:00 PM56 °FPassing clouds.3 mph58%29.83 "Hg13 mi
7:00 PM58 °FOvercast.3 mph55%29.83 "Hg14 mi
Weather by CustomWeather, © 2015

See weather overviewHow to use our weather pages